This demonstration page uses our WeatherBlox Daily Observations layout. Learn more.

Left ArrowRight Arrow

39.95238, -75.16362

Hourly Observations for April 12, 2022

Temp ( °F °C ) Dew Point ( °F °C ) Humidity (%) Winds ( mph kmh ) Pressure ( in mb ) Visibility ( mi km ) Precip ( " mm )
12:54 am 00:54 Cloudy 49 9.4 39 3.9 69 69 NE 3 6 30.05 1018 10 16 0.00 0.00
1:54 am 01:54 Cloudy 50 10 40 4.4 68 68 S 6 9 30.03 1017 10 16 0.00 0.00
2:54 am 02:54 Cloudy 49 9.4 39 3.9 69 69 SSE 3 6 29.97 1015 10 16 0.00 0.00
3:54 am 03:54 Cloudy 48 8.9 39 3.9 71 71 E 3 6 29.96 1014 10 16 0.00 0.00
4:54 am 04:54 Cloudy 48 8.9 40 4.4 74 74 Calm 29.96 1015 10 16 0.00 0.00
5:54 am 05:54 Cloudy 49 9.4 41 5 74 74 Calm 29.96 1015 10 16 0.00 0.00
6:54 am 06:54 Cloudy 49 9.4 41 5 74 74 VRB 3 6 29.98 1015 10 16 0.00 0.00
7:54 am 07:54 Cloudy with Light Rain 52 11.1 43 6.1 72 72 W 5 7 30.01 1016 10 16 0.00 0.00
8:54 am 08:54 Cloudy with Light Rain 52 11.1 44 6.7 75 75 WNW 7 11 30.03 1017 10 16 0.00 0.00
9:54 am 09:54 Mostly Cloudy 54 12.2 45 7.2 72 72 WNW 7 11 30.02 1017 10 16 0.00 0.00
10:54 am 10:54 Mostly Cloudy 61 16.1 48 8.9 63 63 NW 10 17 30.03 1017 10 16 0.00 0.00
11:54 am 11:54 Partly Cloudy 66 18.9 50 10 56 56 NNW 12 19 30.05 1018 10 16 0.00 0.00
12:54 pm 12:54 Mostly Sunny 69 20.6 49 9.4 49 49 NNW 12 19 30.05 1018 10 16 0.00 0.00
1:54 pm 13:54 Mostly Sunny 70 21.1 48 8.9 46 46 NNW 9 15 30.05 1018 10 16 0.00 0.00
2:54 pm 14:54 Mostly Sunny 72 22.2 50 10 46 46 NW 14 22 30.03 1017 10 16 0.00 0.00
3:54 pm 15:54 Mostly Sunny 73 22.8 50 10 44 44 NNW 9 15 30.00 1016 10 16 0.00 0.00
4:54 pm 16:54 Partly Cloudy 72 22.2 49 9.4 44 44 WNW 13 20 30.02 1017 10 16 0.00 0.00
5:54 pm 17:54 Partly Cloudy 72 22.2 49 9.4 44 44 NW 12 19 30.04 1017 10 16 0.00 0.00
6:54 pm 18:54 Mostly Sunny 72 22.2 17 -8.3 12 12 NNW 8 13 30.05 1018 10 16 0.00 0.00
7:10 pm 19:10 Mostly Sunny 72 22.2 47 8.3 41 41 N 9 15 30.05 1018 10 16 0.00 0.00
7:54 pm 19:54 Mostly Clear 68 20 46 7.8 45 45 NW 9 15 30.06 1018 10 16 0.00 0.00
8:54 pm 20:54 Mostly Clear 65 18.3 46 7.8 51 51 N 3 6 30.07 1018 10 16 0.00 0.00
9:54 pm 21:54 Clear 63 17.2 46 7.8 54 54 NNE 3 6 30.08 1019 10 16 0.00 0.00
10:54 pm 22:54 Clear 59 15 46 7.8 62 62 Calm 30.08 1019 10 16 0.00 0.00
11:54 pm 23:54 Mostly Clear 59 15 46 7.8 62 62 S 6 9 30.07 1018 10 16 0.00 0.00

Powered by AerisWeather